EZS1278 DTNH-LFSB

Flight info

Callsign EZS1278
Flight time 1h 57m
Altitude 34000
Route VAXAL1C VAXAL A411 TUC UM733 OSMAR DCT PIRIX DCT GIGGI DCT UPDUT DCT CORSI DCT OKROK DCT AKUTI DCT TORTU DCT ERTEV DCT SRN DCT ABESI DCT UTAVO DCT ELMUR T718 RIGVI
Aircraft A320/M-SDE2E3FGHIJ1RWXYZ/LB1

Departure

Time 2026-05-06 18:08
Airport Enfidha - Hammamet International Airport (DTNH)

Arrival

Time 2026-05-06 20:06
Airport EuroAirport Basel–Mulhouse–Freiburg (LFSB)
Time Latitude Longitude Altitude Speed Heading
2026-05-06 16:56 36.08147 10.43958 16 ft 0 kts 342°
2026-05-06 17:59 36.08132 10.43963 16 ft 4 kts 342°
2026-05-06 18:00 36.08132 10.43964 16 ft 4 kts 342°
2026-05-06 18:00 36.08115 10.43970 17 ft 0 kts 342°
2026-05-06 18:00 36.08119 10.43969 18 ft 1 kts 342°
2026-05-06 18:00 36.08121 10.43968 18 ft 0 kts 342°
2026-05-06 18:02 36.08122 10.43967 18 ft 1 kts 339°
2026-05-06 18:03 36.08123 10.43949 19 ft 4 kts 253°
2026-05-06 18:03 36.08095 10.43950 17 ft 8 kts 164°
2026-05-06 18:03 36.08054 10.43941 24 ft 6 kts 224°
2026-05-06 18:03 36.08044 10.43838 25 ft 17 kts 253°
2026-05-06 18:04 36.07951 10.43799 26 ft 16 kts 180°
2026-05-06 18:04 36.07835 10.43798 28 ft 17 kts 180°
2026-05-06 18:04 36.07751 10.43744 28 ft 15 kts 256°
2026-05-06 18:04 36.07749 10.43597 27 ft 20 kts 271°
2026-05-06 18:05 36.07749 10.43408 28 ft 23 kts 270°
2026-05-06 18:05 36.07750 10.43202 27 ft 26 kts 270°
2026-05-06 18:05 36.07751 10.42980 30 ft 25 kts 269°
2026-05-06 18:05 36.07751 10.42763 32 ft 26 kts 271°
2026-05-06 18:06 36.07754 10.42539 33 ft 26 kts 269°
2026-05-06 18:06 36.07753 10.42313 33 ft 27 kts 270°
2026-05-06 18:06 36.07754 10.42100 30 ft 14 kts 266°
2026-05-06 18:06 36.07692 10.42042 30 ft 12 kts 178°
2026-05-06 18:07 36.07617 10.42047 31 ft 10 kts 173°
2026-05-06 18:07 36.07580 10.42097 32 ft 7 kts 92°
2026-05-06 18:07 36.07583 10.42138 32 ft 0 kts 87°
2026-05-06 18:07 36.07583 10.42189 32 ft 25 kts 89°
2026-05-06 18:08 36.07581 10.42724 32 ft 95 kts 90°
2026-05-06 18:08 36.07577 10.43772 31 ft 146 kts 90°
2026-05-06 18:08 36.07570 10.45181 226 ft 171 kts 86°
2026-05-06 18:08 36.07633 10.46665 813 ft 177 kts 79°
2026-05-06 18:09 36.08206 10.48027 1216 ft 190 kts 36°
2026-05-06 18:09 36.09512 10.48442 1642 ft 210 kts 355°
2026-05-06 18:09 36.10985 10.47807 2027 ft 239 kts 338°
2026-05-06 18:09 36.12526 10.46796 2552 ft 259 kts 336°
2026-05-06 18:10 36.14254 10.46167 3274 ft 263 kts
2026-05-06 18:10 36.16068 10.46462 4070 ft 265 kts 17°
2026-05-06 18:10 36.17886 10.46979 4895 ft 272 kts 18°
2026-05-06 18:10 36.19753 10.47518 5662 ft 279 kts 18°
2026-05-06 18:11 36.21672 10.48073 6383 ft 287 kts 18°
2026-05-06 18:11 36.23621 10.48632 7063 ft 295 kts 17°
2026-05-06 18:11 36.25641 10.49205 7773 ft 301 kts 17°
2026-05-06 18:11 36.27751 10.49541 8458 ft 312 kts
2026-05-06 18:12 36.29933 10.49222 9169 ft 320 kts 346°
2026-05-06 18:12 36.32057 10.48293 9867 ft 327 kts 337°
2026-05-06 18:12 36.34215 10.47239 10299 ft 344 kts 336°
2026-05-06 18:12 36.36514 10.46120 10576 ft 364 kts 336°
2026-05-06 18:13 36.38895 10.44968 11217 ft 370 kts 336°
2026-05-06 18:13 36.41304 10.43821 12002 ft 371 kts 336°
2026-05-06 18:13 36.43726 10.42686 12811 ft 372 kts 335°
2026-05-06 18:13 36.46144 10.41559 13617 ft 372 kts 334°
2026-05-06 18:14 36.48565 10.40428 14319 ft 372 kts 334°
2026-05-06 18:14 36.50992 10.39291 14972 ft 373 kts 334°
2026-05-06 18:14 36.53428 10.38144 15614 ft 376 kts 334°
2026-05-06 18:14 36.55878 10.36990 16290 ft 377 kts 334°
2026-05-06 18:15 36.58338 10.35826 16930 ft 379 kts 334°
2026-05-06 18:15 36.60812 10.34652 17557 ft 382 kts 334°
2026-05-06 18:15 36.63306 10.33469 18148 ft 384 kts 334°
2026-05-06 18:15 36.65812 10.32282 18676 ft 387 kts 334°
2026-05-06 18:16 36.68334 10.31088 19214 ft 389 kts 334°
2026-05-06 18:16 36.70872 10.29887 19739 ft 392 kts 334°
2026-05-06 18:16 36.73431 10.28675 20271 ft 394 kts 334°
2026-05-06 18:16 36.76001 10.27457 20760 ft 397 kts 334°
2026-05-06 18:17 36.78591 10.26228 21258 ft 399 kts 334°
2026-05-06 18:17 36.81196 10.24993 21728 ft 402 kts 334°
2026-05-06 18:17 36.83819 10.23745 22171 ft 406 kts 334°
2026-05-06 18:17 36.86532 10.22671 22626 ft 412 kts 341°
2026-05-06 18:18 36.89324 10.21804 23087 ft 415 kts 342°
2026-05-06 18:18 36.92138 10.20934 23544 ft 418 kts 342°
2026-05-06 18:18 36.94967 10.20059 23944 ft 419 kts 341°
2026-05-06 18:18 36.97798 10.19178 24349 ft 420 kts 340°
2026-05-06 18:19 37.00642 10.18292 24776 ft 421 kts 340°
2026-05-06 18:19 37.03480 10.17409 25222 ft 421 kts 340°
2026-05-06 18:19 37.06327 10.16522 25617 ft 422 kts 340°
2026-05-06 18:19 37.09183 10.15631 25995 ft 424 kts 340°
2026-05-06 18:20 37.12040 10.14738 26383 ft 424 kts 339°
2026-05-06 18:20 37.14904 10.13840 26803 ft 425 kts 339°
2026-05-06 18:20 37.17777 10.12944 27213 ft 425 kts 339°
2026-05-06 18:20 37.20607 10.12061 27617 ft 425 kts 338°
2026-05-06 18:21 37.23478 10.11163 28009 ft 426 kts 338°
2026-05-06 18:21 37.26392 10.10247 28410 ft 426 kts 338°
2026-05-06 18:21 37.29267 10.09339 28821 ft 427 kts 338°
2026-05-06 18:21 37.32163 10.08423 29073 ft 431 kts 338°
2026-05-06 18:22 37.35071 10.07503 29357 ft 433 kts 338°
2026-05-06 18:22 37.38000 10.06582 29698 ft 435 kts 338°
2026-05-06 18:22 37.40940 10.05660 30013 ft 436 kts 338°
2026-05-06 18:22 37.43883 10.04736 30290 ft 437 kts 338°
2026-05-06 18:23 37.46833 10.03805 30568 ft 437 kts 337°
2026-05-06 18:23 37.49786 10.02874 30849 ft 438 kts 337°
2026-05-06 18:23 37.52744 10.01939 31149 ft 438 kts 336°
2026-05-06 18:23 37.55652 10.01019 31489 ft 437 kts 337°
2026-05-06 18:24 37.58599 10.00086 31810 ft 436 kts 336°
2026-05-06 18:24 37.61537 9.99156 32174 ft 435 kts 336°
2026-05-06 18:24 37.64461 9.98232 32579 ft 432 kts 335°
2026-05-06 18:24 37.67373 9.97318 32997 ft 429 kts 335°
2026-05-06 18:25 37.70257 9.96412 33435 ft 426 kts 334°
2026-05-06 18:25 37.73124 9.95508 33858 ft 423 kts 334°
2026-05-06 18:25 37.75964 9.94606 34237 ft 420 kts 334°
2026-05-06 18:25 37.78787 9.93701 34541 ft 420 kts 335°
2026-05-06 18:26 37.81626 9.92785 34650 ft 423 kts 335°
2026-05-06 18:26 37.84485 9.91861 34797 ft 425 kts 335°
2026-05-06 18:26 37.87357 9.90938 35000 ft 426 kts 335°
2026-05-06 18:26 37.90231 9.90020 35231 ft 426 kts 336°
2026-05-06 18:27 37.93102 9.89107 35454 ft 426 kts 336°
2026-05-06 18:27 37.95974 9.88193 35678 ft 426 kts 335°
2026-05-06 18:27 37.98847 9.87277 35886 ft 426 kts 335°
2026-05-06 18:27 38.01715 9.86362 35945 ft 423 kts 335°
2026-05-06 18:28 38.07407 9.84550 35953 ft 421 kts 335°
2026-05-06 18:28 38.13076 9.82728 35961 ft 420 kts 335°
2026-05-06 18:29 38.17817 9.81195 35951 ft 419 kts 334°
2026-05-06 18:29 38.23432 9.79378 35954 ft 419 kts 335°
2026-05-06 18:30 38.29142 9.77540 35957 ft 421 kts 336°
2026-05-06 18:30 38.34805 9.75722 35942 ft 424 kts 337°
2026-05-06 18:31 38.40571 9.73874 35941 ft 425 kts 337°
2026-05-06 18:31 38.46280 9.72049 35945 ft 426 kts 337°
2026-05-06 18:32 38.52038 9.70194 35966 ft 428 kts 338°
2026-05-06 18:32 38.57713 9.68360 35949 ft 430 kts 338°
2026-05-06 18:33 38.63520 9.66482 35945 ft 431 kts 338°
2026-05-06 18:33 38.69345 9.64593 35947 ft 432 kts 338°
2026-05-06 18:34 38.75180 9.62706 35964 ft 433 kts 339°
2026-05-06 18:34 38.81036 9.60801 35955 ft 435 kts 339°
2026-05-06 18:35 38.86903 9.58886 35960 ft 436 kts 339°
2026-05-06 18:35 38.92790 9.56994 35966 ft 437 kts 340°
2026-05-06 18:36 38.98721 9.55216 35990 ft 438 kts 341°
2026-05-06 18:36 39.04676 9.53462 35974 ft 440 kts 341°
2026-05-06 18:37 39.10635 9.51686 35977 ft 440 kts 340°
2026-05-06 18:37 39.16602 9.49874 35979 ft 441 kts 340°
2026-05-06 18:38 39.22573 9.48055 35989 ft 441 kts 341°
2026-05-06 18:38 39.28561 9.46237 35999 ft 442 kts 341°
2026-05-06 18:39 39.34556 9.44418 35986 ft 443 kts 341°
2026-05-06 18:40 39.43515 9.41699 36017 ft 443 kts 341°
2026-05-06 18:40 39.49524 9.39864 36008 ft 444 kts 341°
2026-05-06 18:41 39.55536 9.38024 35992 ft 444 kts 341°
2026-05-06 18:41 39.61544 9.36180 35999 ft 444 kts 341°
2026-05-06 18:42 39.67564 9.34333 36017 ft 444 kts 341°
2026-05-06 18:42 39.73581 9.32493 36010 ft 445 kts 341°
2026-05-06 18:43 39.79606 9.30646 36008 ft 445 kts 341°
2026-05-06 18:43 39.85630 9.28786 36006 ft 445 kts 341°
2026-05-06 18:44 39.91652 9.26921 36011 ft 445 kts 341°
2026-05-06 18:44 39.97677 9.25060 36005 ft 445 kts 341°
2026-05-06 18:45 40.03671 9.23203 35999 ft 446 kts 341°
2026-05-06 18:45 40.09743 9.21321 35995 ft 445 kts 341°
2026-05-06 18:46 40.15731 9.19459 36014 ft 446 kts 340°
2026-05-06 18:46 40.21761 9.17569 36004 ft 446 kts 340°
2026-05-06 18:47 40.27801 9.15679 36004 ft 446 kts 340°
2026-05-06 18:47 40.33839 9.13794 36002 ft 446 kts 340°
2026-05-06 18:48 40.39883 9.11907 35997 ft 446 kts 340°
2026-05-06 18:48 40.45919 9.10013 35997 ft 446 kts 340°
2026-05-06 18:49 40.51959 9.08110 36004 ft 446 kts 340°
2026-05-06 18:49 40.57999 9.06201 36008 ft 446 kts 340°
2026-05-06 18:50 40.64037 9.04286 36003 ft 446 kts 340°
2026-05-06 18:50 40.70075 9.02380 35992 ft 446 kts 340°
2026-05-06 18:51 40.76115 9.00471 35989 ft 446 kts 340°
2026-05-06 18:51 40.82155 8.98560 36007 ft 446 kts 340°
2026-05-06 18:52 40.88193 8.96634 35998 ft 446 kts 340°
2026-05-06 18:52 40.94233 8.94698 35991 ft 447 kts 340°
2026-05-06 18:53 41.00280 8.92772 36004 ft 447 kts 340°
2026-05-06 18:53 41.06329 8.90844 35991 ft 447 kts 340°
2026-05-06 18:54 41.12204 8.88963 35984 ft 448 kts 340°
2026-05-06 18:54 41.18259 8.87016 35982 ft 448 kts 340°
2026-05-06 18:55 41.24314 8.85069 35997 ft 448 kts 340°
2026-05-06 18:55 41.30274 8.82811 35987 ft 445 kts 336°
2026-05-06 18:56 41.36439 8.81377 35978 ft 459 kts 354°
2026-05-06 18:56 41.42850 8.81633 35974 ft 462 kts 357°
2026-05-06 18:57 41.49273 8.82036 35971 ft 462 kts 357°
2026-05-06 18:57 41.55699 8.82424 35967 ft 462 kts 356°
2026-05-06 18:58 41.62132 8.82768 35967 ft 463 kts 356°
2026-05-06 18:58 41.68569 8.83099 35995 ft 463 kts 356°
2026-05-06 18:59 41.75009 8.83429 35982 ft 464 kts 356°
2026-05-06 18:59 41.81457 8.83765 35980 ft 464 kts 356°
2026-05-06 19:00 41.87910 8.84109 36006 ft 464 kts 356°
2026-05-06 19:00 41.94370 8.84456 35982 ft 465 kts 356°
2026-05-06 19:01 42.00798 8.84800 35979 ft 465 kts 356°
2026-05-06 19:01 42.07275 8.85153 35993 ft 466 kts 356°
2026-05-06 19:02 42.13752 8.85497 35975 ft 467 kts 356°
2026-05-06 19:02 42.20242 8.85841 35957 ft 467 kts 356°
2026-05-06 19:03 42.26736 8.86190 35953 ft 467 kts 356°
2026-05-06 19:03 42.33236 8.86540 35956 ft 468 kts 356°
2026-05-06 19:04 42.39754 8.86893 35947 ft 469 kts 356°
2026-05-06 19:04 42.46282 8.87248 35947 ft 469 kts 356°
2026-05-06 19:05 42.52807 8.87612 35939 ft 470 kts 356°
2026-05-06 19:05 42.59343 8.87975 35940 ft 470 kts 356°
2026-05-06 19:06 42.65880 8.88334 35943 ft 470 kts 356°
2026-05-06 19:06 42.72418 8.88688 35953 ft 470 kts 356°
2026-05-06 19:07 42.78953 8.89043 35946 ft 470 kts 356°
2026-05-06 19:07 42.85505 8.89532 35942 ft 472 kts 358°
2026-05-06 19:08 42.91677 8.90287 35964 ft 474 kts 359°
2026-05-06 19:08 42.98248 8.91162 35955 ft 474 kts 359°
2026-05-06 19:09 43.04812 8.91970 35945 ft 474 kts 359°
2026-05-06 19:09 43.11385 8.92722 35950 ft 474 kts 359°
2026-05-06 19:10 43.17918 8.93464 35941 ft 474 kts 359°
2026-05-06 19:10 43.24490 8.94220 35937 ft 474 kts 359°
2026-05-06 19:11 43.31069 8.94968 35956 ft 474 kts 358°
2026-05-06 19:11 43.37645 8.95702 35944 ft 475 kts 358°
2026-05-06 19:12 43.44219 8.96097 35938 ft 471 kts 354°
2026-05-06 19:12 43.50754 8.95988 35954 ft 470 kts 352°
2026-05-06 19:13 43.57298 8.95817 35938 ft 471 kts 353°
2026-05-06 19:13 43.63855 8.95774 35927 ft 472 kts 353°
2026-05-06 19:14 43.70431 8.95928 35938 ft 473 kts 355°
2026-05-06 19:14 43.77015 8.96216 35924 ft 474 kts 355°
2026-05-06 19:15 43.83607 8.96469 35922 ft 474 kts 355°
2026-05-06 19:15 43.90196 8.96661 35929 ft 474 kts 355°
2026-05-06 19:16 43.96787 8.96844 35920 ft 474 kts 355°
2026-05-06 19:16 44.03382 8.97048 35920 ft 474 kts 355°
2026-05-06 19:17 44.09928 8.97253 35934 ft 474 kts 355°
2026-05-06 19:17 44.16562 8.97458 35928 ft 474 kts 355°
2026-05-06 19:18 44.23104 8.97661 35924 ft 473 kts 355°
2026-05-06 19:18 44.29688 8.97864 35936 ft 473 kts 355°
2026-05-06 19:19 44.36277 8.98072 35930 ft 474 kts 355°
2026-05-06 19:19 44.42869 8.98269 35926 ft 474 kts 355°
2026-05-06 19:20 44.48387 8.98437 35925 ft 474 kts 355°
2026-05-06 19:20 44.54988 8.98647 35917 ft 474 kts 355°
2026-05-06 19:21 44.61533 8.98847 35909 ft 474 kts 355°
2026-05-06 19:21 44.68122 8.99055 35919 ft 474 kts 356°
2026-05-06 19:22 44.74723 8.99270 35901 ft 474 kts 356°
2026-05-06 19:22 44.81312 8.99493 35889 ft 474 kts 356°
2026-05-06 19:23 44.87912 8.99696 35888 ft 474 kts 356°
2026-05-06 19:23 44.94506 8.99900 35889 ft 474 kts 356°
2026-05-06 19:24 45.01094 9.00109 35887 ft 474 kts 356°
2026-05-06 19:24 45.07688 9.00327 35896 ft 473 kts 356°
2026-05-06 19:25 45.14272 9.00544 35879 ft 473 kts 356°
2026-05-06 19:25 45.20853 9.00758 35883 ft 473 kts 356°
2026-05-06 19:26 45.27434 9.00966 35885 ft 473 kts 356°
2026-05-06 19:26 45.34008 9.01174 35886 ft 473 kts 356°
2026-05-06 19:27 45.40588 9.01383 35886 ft 473 kts 356°
2026-05-06 19:27 45.47179 9.01598 35899 ft 474 kts 356°
2026-05-06 19:28 45.53731 9.01805 35885 ft 474 kts 356°
2026-05-06 19:28 45.60316 9.02024 35881 ft 474 kts 356°
2026-05-06 19:29 45.66933 9.02247 35898 ft 475 kts 356°
2026-05-06 19:29 45.73537 9.02502 35901 ft 475 kts 356°
2026-05-06 19:30 45.80135 9.02790 35903 ft 475 kts 356°
2026-05-06 19:30 45.86741 9.03074 35924 ft 475 kts 356°
2026-05-06 19:31 45.93348 9.03350 35916 ft 475 kts 356°
2026-05-06 19:31 46.03251 9.03750 35312 ft 473 kts 356°
2026-05-06 19:32 46.06527 9.03887 34850 ft 470 kts 356°
2026-05-06 19:32 46.09786 9.04026 34376 ft 467 kts 356°
2026-05-06 19:32 46.13031 9.04165 33901 ft 465 kts 356°
2026-05-06 19:32 46.16250 9.04224 33353 ft 459 kts 350°
2026-05-06 19:33 46.19405 9.03829 32796 ft 454 kts 348°
2026-05-06 19:33 46.22544 9.03398 32305 ft 452 kts 348°
2026-05-06 19:33 46.25668 9.02974 31961 ft 450 kts 348°
2026-05-06 19:33 46.28784 9.02553 31904 ft 450 kts 348°
2026-05-06 19:34 46.35038 9.01714 31921 ft 452 kts 348°
2026-05-06 19:34 46.41286 9.00883 31924 ft 451 kts 348°
2026-05-06 19:35 46.47547 9.00044 31924 ft 452 kts 348°
2026-05-06 19:35 46.53812 8.99200 31931 ft 453 kts 348°
2026-05-06 19:36 46.60081 8.98353 31928 ft 452 kts 348°
2026-05-06 19:36 46.66344 8.97502 31922 ft 451 kts 348°
2026-05-06 19:37 46.72483 8.96670 31918 ft 452 kts 348°
2026-05-06 19:37 46.78752 8.95829 31921 ft 452 kts 349°
2026-05-06 19:38 46.84997 8.94984 31935 ft 455 kts 349°
2026-05-06 19:38 46.91286 8.94123 31930 ft 453 kts 349°
2026-05-06 19:39 46.97549 8.93259 31926 ft 453 kts 349°
2026-05-06 19:39 47.03836 8.92393 31940 ft 454 kts 349°
2026-05-06 19:40 47.10099 8.91540 31934 ft 450 kts 349°
2026-05-06 19:40 47.16153 8.89752 31748 ft 438 kts 333°
2026-05-06 19:41 47.18902 8.87944 31472 ft 428 kts 323°
2026-05-06 19:41 47.21451 8.85724 31197 ft 425 kts 321°
2026-05-06 19:41 47.23983 8.83490 30923 ft 424 kts 321°
2026-05-06 19:41 47.26511 8.81271 30656 ft 423 kts 322°
2026-05-06 19:42 47.29041 8.79056 30391 ft 422 kts 321°
2026-05-06 19:42 47.31563 8.76849 30131 ft 421 kts 321°
2026-05-06 19:42 47.34077 8.74644 29807 ft 420 kts 321°
2026-05-06 19:42 47.36577 8.72445 29472 ft 417 kts 324°
2026-05-06 19:43 47.39057 8.70261 29098 ft 413 kts 324°
2026-05-06 19:43 47.41515 8.68096 28727 ft 410 kts 324°
2026-05-06 19:43 47.43955 8.65943 28359 ft 407 kts 324°
2026-05-06 19:43 47.46374 8.63801 28008 ft 404 kts 324°
2026-05-06 19:44 47.48773 8.61672 27653 ft 401 kts 324°
2026-05-06 19:44 47.51157 8.59557 27304 ft 397 kts 325°
2026-05-06 19:44 47.53513 8.57463 26939 ft 394 kts 325°
2026-05-06 19:44 47.55859 8.55376 26618 ft 391 kts 325°
2026-05-06 19:45 47.58184 8.53305 26279 ft 389 kts 325°
2026-05-06 19:45 47.60493 8.51250 25945 ft 386 kts 326°
2026-05-06 19:45 47.62787 8.49209 25620 ft 383 kts 326°
2026-05-06 19:45 47.65068 8.47173 25289 ft 381 kts 326°
2026-05-06 19:46 47.67311 8.45111 24942 ft 377 kts 321°
2026-05-06 19:46 47.69295 8.42619 24435 ft 372 kts 310°
2026-05-06 19:46 47.70917 8.39656 23981 ft 368 kts 303°
2026-05-06 19:46 47.72398 8.36562 23501 ft 367 kts 302°
2026-05-06 19:47 47.73879 8.33477 22943 ft 366 kts 302°
2026-05-06 19:47 47.75357 8.30404 22393 ft 365 kts 302°
2026-05-06 19:47 47.76836 8.27335 21853 ft 365 kts 302°
2026-05-06 19:47 47.78310 8.24270 21323 ft 364 kts 302°
2026-05-06 19:48 47.79782 8.21205 20805 ft 363 kts 302°
2026-05-06 19:48 47.81248 8.18154 20296 ft 363 kts 303°
2026-05-06 19:48 47.82715 8.15090 19791 ft 363 kts 303°
2026-05-06 19:48 47.84173 8.12030 19294 ft 362 kts 303°
2026-05-06 19:49 47.85630 8.08977 18803 ft 361 kts 303°
2026-05-06 19:49 47.87081 8.05933 18324 ft 360 kts 303°
2026-05-06 19:49 47.88526 8.02895 17796 ft 359 kts 303°
2026-05-06 19:49 47.89967 7.99857 17251 ft 358 kts 302°
2026-05-06 19:50 47.91387 7.96869 16726 ft 357 kts 303°
2026-05-06 19:50 47.92841 7.93816 16201 ft 356 kts 303°
2026-05-06 19:50 47.94270 7.90804 15686 ft 355 kts 303°
2026-05-06 19:50 47.95690 7.87800 15185 ft 353 kts 303°
2026-05-06 19:51 47.97103 7.84806 14687 ft 352 kts 302°
2026-05-06 19:51 47.98507 7.81822 14196 ft 351 kts 302°
2026-05-06 19:51 47.99888 7.78887 13715 ft 349 kts 302°
2026-05-06 19:51 48.01275 7.75938 13262 ft 345 kts 302°
2026-05-06 19:52 48.02654 7.73032 12842 ft 340 kts 303°
2026-05-06 19:52 48.03950 7.70309 12439 ft 336 kts 303°
2026-05-06 19:52 48.05292 7.67484 12028 ft 331 kts 302°
2026-05-06 19:52 48.06606 7.64713 11609 ft 319 kts 303°
2026-05-06 19:53 48.07779 7.61999 11201 ft 303 kts 293°
2026-05-06 19:53 48.08366 7.59080 10783 ft 287 kts 274°
2026-05-06 19:53 48.08276 7.56183 10417 ft 273 kts 256°
2026-05-06 19:53 48.07602 7.53607 10044 ft 262 kts 238°
2026-05-06 19:54 48.06472 7.51548 9670 ft 252 kts 224°
2026-05-06 19:54 48.05227 7.49766 9290 ft 244 kts 225°
2026-05-06 19:54 48.04020 7.48031 8892 ft 238 kts 225°
2026-05-06 19:54 48.02833 7.46323 8507 ft 236 kts 224°
2026-05-06 19:55 48.01503 7.44906 8119 ft 236 kts 210°
2026-05-06 19:55 47.99966 7.44009 7736 ft 239 kts 200°
2026-05-06 19:55 47.98381 7.43269 7348 ft 239 kts 200°
2026-05-06 19:55 47.96791 7.42525 6989 ft 239 kts 200°
2026-05-06 19:56 47.95244 7.41798 6912 ft 229 kts 201°
2026-05-06 19:56 47.93724 7.41079 6916 ft 229 kts 201°
2026-05-06 19:56 47.92209 7.40361 6914 ft 228 kts 201°
2026-05-06 19:56 47.90676 7.39636 6568 ft 234 kts 201°
2026-05-06 19:57 47.89147 7.38917 6372 ft 227 kts 201°
2026-05-06 19:57 47.87652 7.38214 6048 ft 224 kts 201°
2026-05-06 19:57 47.86168 7.37518 5699 ft 223 kts 201°
2026-05-06 19:57 47.84691 7.36824 5358 ft 222 kts 201°
2026-05-06 19:58 47.83185 7.36476 5067 ft 226 kts 181°
2026-05-06 19:58 47.81647 7.37062 4842 ft 231 kts 160°
2026-05-06 19:58 47.80208 7.38077 4615 ft 227 kts 159°
2026-05-06 19:58 47.78791 7.39081 4383 ft 224 kts 160°
2026-05-06 19:59 47.77396 7.40063 4241 ft 215 kts 160°
2026-05-06 19:59 47.76073 7.40990 4018 ft 210 kts 161°
2026-05-06 19:59 47.74755 7.41914 3732 ft 203 kts 158°
2026-05-06 19:59 47.73495 7.42797 3461 ft 198 kts 161°
2026-05-06 20:00 47.72268 7.43656 3206 ft 192 kts 162°
2026-05-06 20:00 47.71089 7.44483 2948 ft 181 kts 162°
2026-05-06 20:00 47.69989 7.45252 2724 ft 174 kts 162°
2026-05-06 20:00 47.68907 7.46007 2480 ft 171 kts 162°
2026-05-06 20:01 47.67825 7.46761 2251 ft 169 kts 162°
2026-05-06 20:01 47.66821 7.47464 2036 ft 160 kts 161°
2026-05-06 20:01 47.65896 7.48276 1851 ft 156 kts 142°
2026-05-06 20:01 47.65294 7.49600 1893 ft 155 kts 114°
2026-05-06 20:02 47.65116 7.51189 1986 ft 158 kts 91°
2026-05-06 20:02 47.65272 7.52807 1999 ft 159 kts 81°
2026-05-06 20:02 47.65424 7.54425 1920 ft 157 kts 88°
2026-05-06 20:02 47.65452 7.56034 1847 ft 155 kts 96°
2026-05-06 20:03 47.65173 7.57527 1794 ft 147 kts 118°
2026-05-06 20:03 47.64579 7.58720 1795 ft 144 kts 135°
2026-05-06 20:03 47.63832 7.59700 1744 ft 143 kts 139°
2026-05-06 20:03 47.63054 7.60610 1762 ft 143 kts 143°
2026-05-06 20:04 47.62231 7.61421 1807 ft 143 kts 149°
2026-05-06 20:04 47.61272 7.61764 1893 ft 148 kts 186°
2026-05-06 20:04 47.60396 7.61057 1724 ft 145 kts 231°
2026-05-06 20:04 47.59968 7.59745 1543 ft 140 kts 262°
2026-05-06 20:05 47.59824 7.58318 1484 ft 140 kts 263°
2026-05-06 20:05 47.59632 7.56906 1353 ft 139 kts 256°
2026-05-06 20:05 47.59390 7.55526 1181 ft 138 kts 257°
2026-05-06 20:05 47.59178 7.54143 970 ft 139 kts 257°
2026-05-06 20:06 47.58968 7.52808 899 ft 111 kts 257°
2026-05-06 20:06 47.58853 7.52076 898 ft 42 kts 257°
2026-05-06 20:06 47.58809 7.51757 894 ft 22 kts 272°
2026-05-06 20:06 47.58921 7.51671 897 ft 16 kts 357°
2026-05-06 20:07 47.59009 7.51767 898 ft 17 kts 44°
2026-05-06 20:07 47.59096 7.51895 898 ft 18 kts 45°
2026-05-06 20:07 47.59191 7.52037 898 ft 20 kts 45°
2026-05-06 20:07 47.59280 7.52206 898 ft 22 kts 64°
2026-05-06 20:08 47.59324 7.52345 898 ft 23 kts 65°
2026-05-06 20:08 47.59393 7.52566 900 ft 24 kts 65°
2026-05-06 20:08 47.59461 7.52775 900 ft 17 kts 64°
2026-05-06 20:08 47.59533 7.52835 898 ft 13 kts 343°
2026-05-06 20:09 47.59584 7.52801 896 ft 6 kts 336°
2026-05-06 20:09 47.59634 7.52827 896 ft 10 kts 55°
2026-05-06 20:09 47.59661 7.52913 896 ft 9 kts 64°
2026-05-06 20:09 47.59686 7.52989 896 ft 9 kts 64°
2026-05-06 20:10 47.59724 7.53096 898 ft 13 kts 64°
2026-05-06 20:10 47.59750 7.53177 898 ft 3 kts 65°
2026-05-06 20:10 47.59756 7.53195 898 ft 0 kts 65°